This demonstration page uses our WeatherBlox Daily Observations layout. Learn more.

Left ArrowRight Arrow

40.92945, -100.16068

Hourly Observations for December 1, 2020

Temp ( °F °C ) Dew Point ( °F °C ) Humidity (%) Winds ( mph kmh ) Pressure ( in mb ) Visibility ( mi km ) Precip ( " mm )
12:15 am 00:15 Clear 23 -5.2 14 -10.2 68 68 ESE 3 6 30.07 1018 10 16.0934 0 0
12:35 am 00:35 Clear 17 -8.2 12 -11.2 79 79 Calm 30.1 1019 10 16.0934 0 0
12:55 am 00:55 Clear 18 -7.7 12 -11 77 77 Calm 30.09 1019 10 16.0934 0 0
1:15 am 01:15 Clear 16 -9 11 -11.9 80 80 Calm 30.09 1019 10 16.0934 0 0
1:35 am 01:35 Clear 16 -8.8 11 -11.6 80 80 NNW 3 6 30.09 1019 10 16.0934 0 0
1:55 am 01:55 Clear 16 -9.1 11 -11.9 80 80 Calm 30.1 1019 10 16.0934 0 0
2:15 am 02:15 Clear 16 -9 11 -11.7 81 81 Calm 30.09 1019 10 16.0934 0 0
2:35 am 02:35 Clear 15 -9.6 10 -12.3 81 81 Calm 30.1 1019 10 16.0934 0 0
2:55 am 02:55 Clear 16 -9.1 10 -12.1 79 79 WNW 3 6 30.11 1020 10 16.0934 0 0
3:15 am 03:15 Clear 15 -9.6 11 -11.9 84 84 W 3 6 30.11 1019 10 16.0934 0 0
3:35 am 03:35 Clear 15 -9.4 11 -11.8 83 83 Calm 30.1 1019 10 16.0934 0 0
3:55 am 03:55 Clear 15 -9.7 11 -11.9 84 84 W 5 7 30.1 1019 10 16.0934 0 0
4:15 am 04:15 Clear 14 -9.9 10 -12.1 84 84 Calm 30.1 1019 10 16.0934 0 0
4:35 am 04:35 Clear 14 -10.2 9 -12.6 83 83 WNW 6 9 30.1 1019 10 16.0934 0 0
4:55 am 04:55 Clear 14 -10.2 10 -12.5 83 83 Calm 30.09 1019 10 16.0934 0 0
5:15 am 05:15 Clear 14 -10 10 -12.3 83 83 Calm 30.09 1019 10 16.0934 0 0
5:35 am 05:35 Clear 14 -10 10 -12.4 83 83 Calm 30.09 1019 10 16.0934 0 0
5:55 am 05:55 Clear 13 -10.6 9 -12.8 84 84 NW 7 11 30.1 1019 10 16.0934 0 0
6:15 am 06:15 Clear 13 -10.4 10 -12.5 85 85 Calm 30.08 1019 10 16.0934 0 0
6:35 am 06:35 Clear 13 -10.5 9 -13 82 82 WNW 3 6 30.09 1019 10 16.0934 0 0
6:55 am 06:55 Clear 13 -10.5 9 -13 82 82 WNW 7 11 30.09 1019 10 16.0934 0 0
7:15 am 07:15 Clear 13 -10.5 9 -13 82 82 WNW 8 13 30.09 1019 10 16.0934 0 0
7:35 am 07:35 Clear 14 -10 10 -12.5 82 82 WNW 8 13 30.1 1019 10 16.0934 0 0
7:55 am 07:55 Sunny 15 -9.5 11 -11.9 83 83 W 5 7 30.1 1019 10 16.0934 0 0
8:15 am 08:15 Sunny 16 -8.9 11 -11.9 79 79 W 6 9 30.11 1020 10 16.0934 0 0
8:35 am 08:35 Sunny 18 -8 12 -11.3 77 77 WSW 3 6 30.1 1019 10 16.0934 0 0
8:55 am 08:55 Sunny 20 -6.4 14 -9.9 76 76 SW 5 7 30.09 1019 10 16.0934 0 0
9:15 am 09:15 Sunny 24 -4.2 15 -9.4 67 67 Calm 30.08 1019 10 16.0934 0 0
9:35 am 09:35 Sunny 26 -3.1 16 -9 64 64 WNW 5 7 30.06 1018 10 16.0934 0 0
9:55 am 09:55 Sunny 29 -1.6 18 -7.8 63 63 WNW 6 9 30.05 1018 10 16.0934 0 0
10:15 am 10:15 Sunny 32 0 19 -7 60 60 NW 5 7 30.04 1017 10 16.0934 0 0
10:35 am 10:35 Sunny 35 1.5 20 -6.7 55 55 NW 5 7 30.03 1017 10 16.0934 0 0
10:55 am 10:55 Sunny 39 3.7 20 -6.4 48 48 NNW 7 11 30.01 1016 10 16.0934 0 0
11:15 am 11:15 Sunny 47 8.1 18 -7.8 32 32 N 17 28 29.97 1015 10 16.0934 0 0
11:35 am 11:35 Sunny 46 7.8 18 -8 32 32 N 17 28 29.97 1015 10 16.0934 0 0
11:55 am 11:55 Sunny 46 8 18 -7.7 32 32 N 16 26 29.97 1015 10 16.0934 0 0
12:15 pm 12:15 Sunny 46 8 18 -7.8 32 32 N 13 20 29.97 1015 10 16.0934 0 0
12:35 pm 12:35 Sunny 47 8.6 19 -7.5 31 31 N 12 19 29.96 1015 10 16.0934 0 0
12:55 pm 12:55 Sunny 49 9.2 18 -8 29 29 NNW 20 31 29.95 1014 10 16.0934 0 0
1:15 pm 13:15 Sunny 48 9.1 18 -7.7 30 30 NNW 18 30 29.96 1015 10 16.0934 0 0
1:35 pm 13:35 Sunny 48 9 19 -7.5 31 31 NNW 18 30 29.96 1015 10 16.0934 0 0
1:55 pm 13:55 Sunny 49 9.4 18 -7.6 30 30 NNW 20 31 29.96 1014 10 16.0934 0 0
2:15 pm 14:15 Sunny 48 9.1 19 -7.2 31 31 NNW 18 30 29.96 1015 10 16.0934 0 0
2:35 pm 14:35 Sunny 49 9.3 19 -7.1 31 31 N 16 26 29.97 1015 10 16.0934 0 0
2:55 pm 14:55 Sunny 49 9.2 19 -7.3 31 31 N 18 30 29.97 1015 10 16.0934 0 0
3:15 pm 15:15 Sunny 48 9 19 -7.4 31 31 NNW 20 31 29.98 1015 10 16.0934 0 0
3:35 pm 15:35 Sunny 48 8.7 19 -7.4 32 32 N 23 37 29.99 1016 10 16.0934 0 0
3:55 pm 15:55 Sunny 47 8.5 19 -7.2 32 32 N 20 31 30.01 1016 10 16.0934 0 0
4:15 pm 16:15 Sunny 47 8.5 19 -7 33 33 N 16 26 30.01 1016 10 16.0934 0 0
4:35 pm 16:35 Sunny 46 7.8 20 -6.7 35 35 N 13 20 30.02 1017 10 16.0934 0 0
4:55 pm 16:55 Sunny 46 7.5 20 -6.6 36 36 N 15 24 30.02 1017 10 16.0934 0 0
5:15 pm 17:15 Clear 43 6.2 20 -6.5 40 40 NNW 9 15 30.06 1018 10 16.0934 0 0
5:35 pm 17:35 Clear 42 5.5 20 -6.5 42 42 NNW 10 17 30.07 1018 10 16.0934 0 0
5:55 pm 17:55 Clear 40 4.4 20 -6.6 45 45 NNW 9 15 30.09 1019 10 16.0934 0 0
6:15 pm 18:15 Clear 37 2.8 20 -6.8 50 50 NNW 9 15 30.12 1020 10 16.0934 0 0
6:35 pm 18:35 Clear 37 2.9 20 -6.6 50 50 NNW 9 15 30.13 1020 10 16.0934 0 0
6:55 pm 18:55 Clear 34 1.2 19 -7 55 55 NW 9 15 30.15 1021 10 16.0934 0 0
7:15 pm 19:15 Clear 33 0.5 19 -7 58 58 NW 10 17 30.17 1022 10 16.0934 0 0
7:35 pm 19:35 Clear 39 4 23 -5.2 52 52 N 14 22 30.15 1021 10 16.0934 0 0
7:55 pm 19:55 Clear 37 2.7 23 -5.2 56 56 N 13 20 30.17 1022 10 16.0934 0 0
8:15 pm 20:15 Clear 39 4.1 25 -3.7 57 57 N 13 20 30.17 1022 10 16.0934 0 0
8:35 pm 20:35 Clear 40 4.2 26 -3.1 59 59 N 21 33 30.19 1022 10 16.0934 0 0
8:55 pm 20:55 Clear 39 3.8 26 -3.1 61 61 N 15 24 30.19 1022 10 16.0934 0 0
9:15 pm 21:15 Clear 38 3.3 26 -3.3 62 62 N 17 28 30.2 1023 10 16.0934 0 0
9:35 pm 21:35 Clear 37 3 26 -3.5 63 63 N 18 30 30.22 1023 10 16.0934 0 0
9:55 pm 21:55 Clear 37 2.9 25 -3.7 62 62 N 20 31 30.23 1024 10 16.0934 0 0
10:15 pm 22:15 Clear 37 2.7 26 -3.5 64 64 N 20 31 30.24 1024 10 16.0934 0 0
10:35 pm 22:35 Partly Cloudy 36 2 25 -3.7 66 66 N 17 28 30.26 1025 10 16.0934 0 0
10:55 pm 22:55 Partly Cloudy 36 2.1 26 -3.5 67 67 N 17 28 30.26 1025 10 16.0934 0 0
11:15 pm 23:15 Partly Cloudy 36 2.1 26 -3.1 69 69 N 22 35 30.26 1025 10 16.0934 0 0
11:35 pm 23:35 Partly Cloudy 36 2 26 -3.1 69 69 N 17 28 30.27 1025 10 16.0934 0 0
11:55 pm 23:55 Mostly Cloudy 36 2 27 -3 70 70 N 17 28 30.28 1025 10 16.0934 0 0

Powered by AerisWeather